Regional Weather Roundup
Issued by NWS

Home | Current Version | Previous Version | Graphics & Text | Print | Product List | Glossary On
Versions: 1 2 3 4 5 6 7 8 9 10 11 12 13 14 15 16 17 18 19 20 21 22 23 24 25 26 27 28 29 30 31 32 33 34 35 36 37 38 39 40 41 42 43 44 45 46 47 48 49 50
000
ASUS43 KTOP 281659
RWRKS

WEATHER ROUNDUP FOR KANSAS
NATIONAL WEATHER SERVICE GOODLAND KS
1100 AM CST SAT FEB 28 2015

NOTE:  "FAIR" INDICATES FEW OR NO CLOUDS BELOW 12,000 FEET WITH NO
SIGNIFICANT WEATHER AND/OR OBSTRUCTIONS TO VISIBILITY.

KSZ001>006-013>018-027>032-041>047-281800-
NORTHWEST KANSAS

CITY           SKY/WX    TMP DP  RH WIND       PRES   REMARKS
GOODLAND       LGT SNOW  15  10  80 S12       30.13R WCI   2
HAYS           CLOUDY    16   3  57 SE9       30.34R
HILL CITY      LGT SNOW  16  10  77 S12       30.29F WCI   3
RUSSELL        LGT SNOW  16  12  84 S8        30.34S FOG
$$

KSZ061>065-074>080-084>089-281800-
SOUTHWEST KANSAS

CITY           SKY/WX    TMP DP  RH WIND       PRES   REMARKS
DODGE CITY     CLOUDY    15  10  80 S12       30.25F WCI   2
ELKHART          N/A     17   9  71 S14         N/A  WCI   3
GARDEN CITY    CLOUDY    14  10  84 S15       30.19F FOG     WCI  -1
GREAT BEND     CLOUDY    16   9  73 S9        30.34F
LIBERAL        PTSUNNY   18  10  73 S14       30.21R WCI   4
$$

KSZ066>073-081>083-090>101-281800-
SOUTHEAST KANSAS

CITY           SKY/WX    TMP DP  RH WIND       PRES   REMARKS
CHANUTE        LGT SNOW  22  19  89 SE9       30.47S VSB 3/4
COFFEYVILLE    SNOW      23  20  88 E5        30.48S VSB 1/2
HUTCHINSON     LGT SNOW  19  13  77 SE8       30.40R
MEDICINE LODGE   N/A     17  14  88 SE6       30.38S
NEWTON         CLOUDY    18  10  73 SE7       30.41S
PARSONS        SNOW      23  20  88 VRB3      30.48R VSB 1/2
WICHITA INTL   SNOW      19  15  84 SE8       30.41S VSB 1/2
WICHITA JABRA  LGT SNOW  18  15  88 SE7       30.41S VSB 3/4
WICHITA MCCONL LGT SNOW  19  16  86 SE8       30.41S FOG
WINFIELD       LGT SNOW  20  17  88 E7        30.44S VSB 1
$$

KSZ007>012-019>026-033>040-048>060-102>105-281800-
NORTHEAST KANSAS

CITY           SKY/WX    TMP DP  RH WIND       PRES   REMARKS
CONCORDIA      LGT SNOW  17  14  88 SE9       30.40F FOG
EMPORIA        LGT SNOW  19  16  88 E7        30.43F VSB 3/4
LAWRENCE       LGT SNOW  20  16  84 SE7       30.50F VSB 3/4
MANHATTAN      LGT SNOW  20  16  84 SE6       30.45F VSB 1
OLATHE IND     LGT SNOW  20  15  81 SE6       30.49F
OLATHE EXE     LGT SNOW  19  16  88 E8        30.47F VSB 3/4
SALINA         LGT SNOW  19  14  81 SE8       30.42F VSB 1
TOPEKA BILLARD LGT SNOW  21  16  81 E8        30.49F VSB 3/4
TOPEKA FORBES  LGT SNOW  21  16  81 E8        30.47S VSB 1
$$


USA.gov is the U.S. government's official web portal to all federal, state and local government web resources and services.